DW4988 Weather Reports


time (UTC)temp
F
wind
direction
speed
knots
gust
knots
rain 1hr
in
rain 24hr
in
rain mn
in
humidity
%
barometer
mb
20260505083045 56 217 1.7 6.1 0.00 0.00 0.00 64 1009.4
20260505081558 56 177 2.6 7.8 0.00 0.00 0.00 60 1009.5
20260505080053 56 183 1.7 7.8 0.00 0.00 0.00 60 1009.6
20260505074543 56 193 3.5 10.4 0.00 0.00 0.00 60 1009.4
20260505073041 57 190 4.3 14.8 0.00 0.00 0.00 56 1009.4
20260505071550 57 169 3.5 11.3 0.00 0.00 0.00 54 1009.3
20260505070038 56 173 3.5 11.3 0.00 0.00 0.00 54 1009.2
20260505064542 56 140 4.3 13.9 0.00 0.00 0.00 54 1009.2
20260505063048 56 191 4.3 14.8 0.00 0.00 0.00 56 1009.3
20260505061546 57 225 4.3 11.3 0.00 0.00 0.00 57 1009.3
20260505060045 57 180 3.5 13.9 0.00 0.00 0.00 57 1009.2
20260505054545 57 182 4.3 19.1 0.00 0.00 0.00 56 1009.3
20260505053048 58 112 3.5 18.2 0.00 0.00 0.00 57 1009.2
20260505051545 58 73 7.0 19.1 0.00 0.00 0.00 56 1009.2
20260505041546 62 144 5.2 13.0 0.00 0.00 0.00 42 1008.3
20260505040045 62 195 2.6 6.1 0.00 0.00 0.00 42 1008.0
20260505034547 62 205 3.5 9.6 0.00 0.00 0.00 44 1007.7
20260505033041 62 204 3.5 8.7 0.00 0.00 0.00 43 1007.7
20260505031544 63 190 3.5 7.8 0.00 0.00 0.00 40 1007.7
20260505030045 64 232 1.7 10.4 0.00 0.00 0.00 40 1007.5
20260505024542 64 176 3.5 10.4 0.00 0.00 0.00 39 1007.4
20260505023049 64 247 1.7 13.0 0.00 0.00 0.00 38 1007.2
20260505021544 65 171 4.3 12.2 0.00 0.00 0.00 37 1007.1
20260505020043 65 174 5.2 13.9 0.00 0.00 0.00 37 1007.0
20260505014539 66 209 0.9 5.2 0.00 0.00 0.00 36 1006.9
20260505013046 68 154 0.0 5.2 0.00 0.00 0.00 37 1007.0
20260505011544 68 70 1.7 5.2 0.00 0.00 0.00 32 1007.1
20260505010104 68 5 1.7 7.0 0.00 0.00 0.00 32 1007.2
20260505004543 68 63 7.0 13.0 0.00 0.00 0.00 31 1007.4
20260505003044 68 69 5.2 12.2 0.00 0.00 0.00 31 1007.5
20260505001546 69 70 7.0 13.9 0.00 0.00 0.00 32 1007.6
20260505000046 69 55 7.8 18.2 0.00 0.00 0.00 33 1007.8
20260504234545 70 51 7.8 13.9 0.00 0.00 0.00 31 1007.9
20260504233042 71 61 8.7 13.9 0.00 0.00 0.00 30 1008.2
20260504231546 72 47 5.2 10.4 0.00 0.00 0.00 28 1008.0
20260504230046 72 71 7.8 12.2 0.00 0.00 0.00 29 1008.0
20260504224537 70 76 6.1 13.0 0.00 0.00 0.00 31 1008.1
20260504223058 72 113 10.4 17.4 0.00 0.00 0.00 28 1008.1
20260504221558 71 217 2.6 7.8 0.00 0.00 0.00 27 1008.1
20260504220044 71 236 5.2 10.4 0.00 0.00 0.00 27 1008.0
20260504214540 71 233 4.3 7.8 0.00 0.00 0.00 27 1008.2
20260504213058 72 223 4.3 10.4 0.00 0.00 0.00 24 1008.1
20260504211549 74 240 3.5 7.8 0.00 0.00 0.00 22 1008.1
20260504210043 74 236 1.7 7.0 0.00 0.00 0.00 23 1008.3
20260504204542 74 222 2.6 7.0 0.00 0.00 0.00 26 1008.4
20260504203048 74 257 0.9 5.2 0.00 0.00 0.00 26 1008.4
20260504201540 74 263 2.6 8.7 0.00 0.00 0.00 26 1008.6
20260504200046 75 253 1.7 7.8 0.00 0.00 0.00 25 1008.6
20260504194551 76 0 0.0 7.8 0.00 0.00 0.00 25 1008.7
20260504193043 79 315 5.2 8.7 0.00 0.00 0.00 22 1008.8
20260504191543 80 0 1.7 7.8 0.00 0.00 0.00 22 1008.9
20260504190042 79 183 1.7 7.8 0.00 0.00 0.00 23 1009.2
20260504184537 77 76 3.5 7.8 0.00 0.00 0.00 25 1009.4
20260504183045 77 146 1.7 9.6 0.00 0.00 0.00 24 1009.4
20260504181541 78 132 4.3 10.4 0.00 0.00 0.00 23 1009.6
20260504180048 77 211 1.7 10.4 0.00 0.00 0.00 25 1009.8
20260504174544 77 215 2.6 11.3 0.00 0.00 0.00 26 1009.9
20260504173046 76 121 2.6 11.3 0.00 0.00 0.00 27 1010.0
20260504171546 75 194 6.1 15.6 0.00 0.00 0.00 28 1010.1
20260504150111 65 193 2.6 9.6 0.00 0.00 0.00 39 1010.7